Home > Weather > Monthey > Past weeks

Flag for Switzerland Past Weather in Monthey, Valais, Switzerland — Yesterday and Last 2 Weeks

Now
64 °F

Mild.


Feels Like: 64 °F
Forecast: 56 / 74 °F
Wind: 2 mph from Northeast

Location: Aigle

Current Time: Jun 26, 2016 at 10:10:34 AM

Latest Report: Jun 26, 2016 at 9:00 AM


Visibility: N/A

Pressure: 30.08 "Hg

Humidity: 78%

Dew Point: 57 °F

Location of MontheyLocation

Past Weather in Monthey — Graph

°F

Monthey Temperature Yesterday

Maximum temperature yesterday: 72 °F (at 4:00 PM)
Minimum temperature yesterday: 63 °F (at 11:00 PM)
Average temperature yesterday: 68 °F

High & Low Weather Summary for the Past Weeks

 TemperatureHumidityPressure
High87 °F (Jun 24, 5:00 PM)96% (Jun 13, 6:00 AM)30.27 "Hg (Jun 13, 6:00 AM)
Low50 °F (Jun 20, 6:00 AM)34% (Jun 24, 5:00 PM)29.56 "Hg (Jun 15, 7:00 PM)
Average63 °F80%29.96 "Hg
* Reported Jun 11 8:00 AM — Jun 26 8:00 AM, Monthey, Weather by CustomWeather, © 2016

Note: Actual official high and low records may vary slightly from our data, if they occured in-between our weather recording intervals... More about our weather records

Advertising

Monthey Weather History for the Previous 24 Hours

Scroll right to see more
 ConditionsComfort  
Time TempWeatherWind HumidityBarometerVisibility
8:00 AM
Sun, Jun 26
62 °FPartly sunny.1 mph81%30.09 "Hg9 mi
7:00 AM57 °FCool.No wind96%30.09 "HgN/A
6:00 AM57 °FCool.1 mph95%30.08 "HgN/A
5:00 AM58 °FPassing clouds.No wind96%30.07 "Hg19 mi
4:00 AM59 °FCool.1 mph94%30.06 "HgN/A
3:00 AM61 °FCool.2 mph93%30.07 "HgN/A
2:00 AM61 °FCool.2 mph90%30.08 "HgN/A
1:00 AM61 °FCool.1 mph91%30.09 "HgN/A
12:00 AM62 °FCool.2 mph93%30.08 "HgN/A
11:00 PM
Sat, Jun 25
63 °FMild.2 mph89%30.07 "HgN/A
10:00 PM66 °FMild.10 mph67%30.04 "HgN/A
9:00 PM66 °FMild.8 mph77%30.03 "HgN/A
8:00 PM67 °FOvercast.2 mph88%30.02 "Hg11 mi
7:00 PM69 °FMild.6 mph86%30.00 "HgN/A
6:00 PM67 °FMild.6 mph89%30.01 "HgN/A
5:00 PM71 °FPartly sunny.1 mph63%29.98 "Hg12 mi
4:00 PM72 °FMild.2 mph75%29.98 "HgN/A
3:00 PM71 °FMild.3 mph76%29.98 "HgN/A
2:00 PM69 °FLight rain. Overcast.5 mph84%29.98 "Hg10 mi
1:00 PM66 °FMild.2 mph91%29.99 "HgN/A
12:00 PM69 °FMild.3 mph74%29.98 "HgN/A
11:00 AM70 °FScattered clouds.7 mph74%29.95 "Hg16 mi
10:00 AM71 °FMild.3 mph72%29.95 "HgN/A
Weather by CustomWeather, © 2016

See weather overviewHow to use our weather pages